Weather History for Saint Paul Island, AK

Change the Weather History Date:

Monday, July 1, 2013

  Actual Average Record
Temperature  
Mean Temperature 44 °F 46 °F  
Max Temperature 46 °F 49 °F 58 °F (1976)
Min Temperature 42 °F 42 °F 33 °F (1971)
Degree Days  
Heating Degree Days 21 20  
Month to date heating degree days 21 20  
Since 1 June heating degree days 731 699  
Since 1 July heating degree days 21 20  
Cooling Degree Days 0    
Month to date cooling degree days 0  
Year to date cooling degree days 0  
Since 1 June cooling degree days 0  
Moisture  
Dew Point 43 °F    
Average Humidity 0    
Maximum Humidity 0    
Minimum Humidity 0    
Precipitation  
Precipitation 0.09 in 0.05 in 0.68 in (1993)
Month to date precipitation 0.09 0.05  
Year to date precipitation 8.82 7.56  
Snow  
Snow 0.00 in 0.00 in 0.00 in (2014)
Month to date snowfall 0.0 0.0  
Since 1 June snowfall 0.0 0.0  
Since 1 July snowfall 0.0 0.0  
Snow Depth 0.00 in    
Sea Level Pressure  
Sea Level Pressure 29.30 in    
Wind  
Wind Speed 20 mph (WSW)    
Max Wind Speed 25 mph    
Max Gust Speed 32 mph    
Visibility 3 miles    
Events Rain    
T = Trace of Precipitation, MM = Missing Value Source: NWS Daily Summary

Daily Weather History Graph

Daily Weather History Graph

Search for Another Location

Airport:

Trip Planner

Search our weather history database for the weather conditions in past years. The results will help you decide how hot, cold, wet, or windy it might be!

Date:

Astronomy

Jul. 01, 2013 Rise Set
Actual Time 6:30 AM AKDT 12:18 AM AKDT
Civil Twilight 5:23 AM AKDT 1:25 AM AKDT
Nautical Twilight 3:57 AM AKDT 2:52 AM AKDT
Astronomical Twilight Sun does not rise Sun does not rise
Moon 2:59 AM AKDT (7/1) 6:04 PM AKDT (7/1)
Length of Visible Light 20h 02m
Length of Day
17h 47m
Waning Crescent, 34% of the Moon is Illuminated
Jul 1
Waning Crescent
Jul 7
New
Jul 15
First Quarter
Jul 22
Full
Jul 29
Last Quarter

Hourly Weather History & Observations

Time (AKDT) Temp. Windchill Dew Point Humidity Pressure Visibility Wind Dir Wind Speed Gust Speed Precip Events Conditions
12:08 AM 42.8 °F 34.0 °F 42.8 °F 100% 29.14 in 1.5 mi SW 20.7 mph 27.6 mph N/A   Overcast
12:15 AM 42.8 °F 34.3 °F 42.8 °F 100% 29.14 in 1.5 mi SW 19.6 mph - N/A   Overcast
12:35 AM 42.8 °F 34.3 °F 42.8 °F 100% 29.14 in 2.5 mi SW 19.6 mph - N/A   Overcast
12:53 AM 42.1 °F 33.1 °F 42.1 °F 100% 29.16 in 2.5 mi SW 20.7 mph - N/A   Overcast
1:27 AM 42.8 °F 34.5 °F 42.8 °F 100% 29.15 in 3.0 mi SW 18.4 mph - N/A   Overcast
1:53 AM 42.1 °F 33.9 °F 42.1 °F 100% 29.16 in 3.0 mi SW 17.3 mph - N/A   Overcast
2:22 AM 42.8 °F 34.3 °F 42.8 °F 100% 29.16 in 2.5 mi SW 19.6 mph - N/A   Overcast
2:53 AM 42.1 °F 33.1 °F 42.1 °F 100% 29.17 in 2.5 mi SW 20.7 mph 27.6 mph 0.00 in Rain Light Rain
3:35 AM 42.8 °F 34.0 °F 42.8 °F 100% 29.16 in 3.0 mi SW 20.7 mph 27.6 mph 0.01 in Rain Light Rain
3:53 AM 42.1 °F 32.8 °F 42.1 °F 100% 29.17 in 3.0 mi WSW 21.9 mph 27.6 mph 0.01 in   Overcast
4:37 AM 42.8 °F 34.0 °F 42.8 °F 100% 29.18 in 2.5 mi WSW 20.7 mph 27.6 mph 0.01 in Rain Light Rain
4:53 AM 42.1 °F 33.1 °F 42.1 °F 100% 29.18 in 3.0 mi WSW 20.7 mph 25.3 mph 0.02 in Rain Light Rain
5:36 AM 42.8 °F 34.5 °F 42.8 °F 100% 29.19 in 2.5 mi WSW 18.4 mph - 0.00 in   Overcast
5:53 AM 42.1 °F 33.3 °F 42.1 °F 100% 29.20 in 4.0 mi WSW 19.6 mph - 0.00 in   Overcast
6:49 AM 42.8 °F 34.5 °F 42.8 °F 100% 29.21 in 2.5 mi WSW 18.4 mph 26.5 mph N/A   Overcast
6:53 AM 42.1 °F 33.6 °F 42.1 °F 100% 29.22 in 3.0 mi WSW 18.4 mph 26.5 mph N/A   Overcast
7:19 AM 42.8 °F 34.0 °F 42.8 °F 100% 29.23 in 1.8 mi WSW 20.7 mph - 0.01 in Rain Light Rain
7:34 AM 42.8 °F 34.3 °F 42.8 °F 100% 29.23 in 3.0 mi WSW 19.6 mph 26.5 mph 0.01 in Rain Light Rain
7:53 AM 42.1 °F 33.1 °F 42.1 °F 100% 29.24 in 3.0 mi WSW 20.7 mph - 0.02 in Rain Light Rain
8:53 AM 42.1 °F 33.1 °F 42.1 °F 100% 29.26 in 3.0 mi WSW 20.7 mph - 0.00 in Rain Light Rain
9:53 AM 43.0 °F 33.8 °F 43.0 °F 100% 29.29 in 2.5 mi WSW 23.0 mph - 0.02 in Rain Light Rain
10:31 AM 42.8 °F 34.0 °F 42.8 °F 100% 29.30 in 2.0 mi WSW 20.7 mph 26.5 mph 0.01 in Rain Light Rain
10:53 AM 43.0 °F 34.0 °F 43.0 °F 100% 29.32 in 2.5 mi WSW 21.9 mph 29.9 mph 0.01 in Rain Light Rain
11:31 AM 42.8 °F 33.1 °F 42.8 °F 100% 29.31 in 1.8 mi WSW 25.3 mph 29.9 mph 0.00 in Rain Light Rain
11:53 AM 43.0 °F 34.5 °F 43.0 °F 100% 29.32 in 1.8 mi WSW 19.6 mph 28.8 mph 0.00 in Rain Light Rain
12:03 PM 42.8 °F 34.3 °F 42.8 °F 100% 29.32 in 2.5 mi WSW 19.6 mph 27.6 mph 0.00 in   Overcast
12:12 PM 44.6 °F 36.1 °F 44.6 °F 100% 29.32 in 3.0 mi WSW 21.9 mph 27.6 mph 0.00 in   Overcast
12:20 PM 42.8 °F 33.8 °F 42.8 °F 100% 29.32 in 2.5 mi WSW 21.9 mph 29.9 mph 0.00 in   Overcast
12:41 PM 44.6 °F 35.9 °F 44.6 °F 100% 29.34 in 1.5 mi WSW 23.0 mph 29.9 mph 0.00 in   Overcast
12:53 PM 43.0 °F 33.8 °F 43.0 °F 100% 29.35 in 1.5 mi WSW 23.0 mph 29.9 mph 0.00 in   Overcast
1:53 PM 43.0 °F 34.2 °F 43.0 °F 100% 29.35 in 1.2 mi WSW 20.7 mph 26.5 mph 0.01 in Rain Light Rain
2:36 PM 44.6 °F 36.6 °F 44.6 °F 100% 29.37 in 3.0 mi WSW 19.6 mph 26.5 mph 0.00 in   Overcast
2:53 PM 44.1 °F 36.2 °F 44.1 °F 100% 29.38 in 5.0 mi WSW 18.4 mph 27.6 mph 0.00 in   Overcast
3:23 PM 44.6 °F 35.5 °F 44.6 °F 100% 29.38 in 1.8 mi WSW 25.3 mph - N/A   Overcast
3:53 PM 45.0 °F 36.4 °F 45.0 °F 100% 29.38 in 1.2 mi WSW 23.0 mph 32.2 mph N/A   Overcast
4:27 PM 44.6 °F 35.7 °F 44.6 °F 100% 29.39 in 0.8 mi WSW 24.2 mph 27.6 mph N/A   Mist
4:36 PM 44.6 °F 36.6 °F 44.6 °F 100% 29.39 in 1.0 mi WSW 19.6 mph - N/A   Mist
4:53 PM 44.1 °F 35.4 °F 44.1 °F 100% 29.40 in 1.2 mi WSW 21.9 mph 28.8 mph N/A   Overcast
5:53 PM 45.0 °F 36.6 °F 44.1 °F 97% 29.40 in 0.8 mi WSW 21.9 mph - N/A   Mist
6:05 PM 44.6 °F 36.6 °F 44.6 °F 100% 29.40 in 1.5 mi WSW 19.6 mph - N/A   Overcast
6:22 PM 44.6 °F 36.4 °F 44.6 °F 100% 29.40 in 3.0 mi WSW 20.7 mph 27.6 mph N/A   Overcast
6:53 PM 45.0 °F 36.9 °F 44.1 °F 97% 29.42 in 5.0 mi WSW 20.7 mph - N/A   Overcast
7:15 PM 44.6 °F 36.4 °F 44.6 °F 100% 29.42 in 7.0 mi WSW 20.7 mph 29.9 mph N/A   Overcast
7:53 PM 46.0 °F 38.5 °F 43.0 °F 89% 29.42 in 8.0 mi WSW 19.6 mph - N/A   Overcast
8:28 PM 44.6 °F 37.2 °F 42.8 °F 93% 29.42 in 8.0 mi WSW 17.3 mph 26.5 mph N/A   Overcast
8:53 PM 45.0 °F 36.6 °F 43.0 °F 93% 29.43 in 8.0 mi WSW 21.9 mph 25.3 mph N/A   Overcast
9:38 PM 44.6 °F 36.6 °F 42.8 °F 93% 29.43 in 9.0 mi WSW 19.6 mph 24.2 mph N/A   Overcast
9:53 PM 44.1 °F 36.8 °F 42.1 °F 93% 29.43 in 9.0 mi WSW 16.1 mph - N/A   Overcast
10:53 PM 43.0 °F 35.4 °F 42.1 °F 97% 29.44 in 7.0 mi WSW 16.1 mph 25.3 mph N/A   Overcast
11:15 PM 42.8 °F 34.0 °F 42.8 °F 100% 29.45 in 7.0 mi WSW 20.7 mph - N/A   Overcast
11:53 PM 42.1 °F 33.1 °F 42.1 °F 100% 29.47 in 5.0 mi WSW 20.7 mph - N/A   Overcast